Fremont, NE

7:58 PM CDT on April 25, 2018 (GMT -0500)
Fremont Municipal

Weather History for KFET - November, 2010

Change the Weather History Date:

Sunday, November 21, 2010

  Actual Average Record
Temperature  
Mean Temperature 34 °F -  
Max Temperature 37 °F 45 °F 72 °F (2012)
Min Temperature 31 °F 24 °F 2 °F (1964)
Degree Days  
Heating Degree Days 31    
Moisture  
Dew Point 32 °F    
Average Humidity 88    
Maximum Humidity 97    
Minimum Humidity 82    
Precipitation  
Precipitation 0.00 in - - ()
Sea Level Pressure  
Sea Level Pressure 29.80 in    
Wind  
Wind Speed 6 mph (NW)    
Max Wind Speed 14 mph    
Max Gust Speed 18 mph    
Visibility 9 miles    
Events      
Averages and records for this station are not official NWS values.
T = Trace of Precipitation, MM = Missing Value Source: NWS Daily Summary

Daily Weather History Graph

Daily Weather History Graph

Search for Another Location

Airport or City:

Astronomy

Nov. 21, 2010 Rise Set
Actual Time 7:21 AM CST 5:01 PM CST
Civil Twilight 6:51 AM CST 5:31 PM CST
Nautical Twilight 6:17 AM CST 6:05 PM CST
Astronomical Twilight 5:44 AM CST 6:38 PM CST
Moon 4:52 PM CST (11/21) 7:25 AM CST (11/21)
Length of Visible Light 10h 40m
Length of Day
9h 40m
Full, 100% of the Moon is Illuminated
Nov 21
Full
Nov 28
Last Quarter
Dec 5
New
Dec 13
First Quarter
Dec 21
Full

Hourly Weather History & Observations

Time (CST) Temp. Windchill Dew Point Humidity Pressure Visibility Wind Dir Wind Speed Gust Speed Precip Events Conditions
12:10 AM 36.0 °F 33.3 °F 31.1 °F 82% 29.87 in 10.0 mi ENE 3.5 mph - N/A   Overcast
12:30 AM 36.0 °F 33.3 °F 31.6 °F 84% 29.84 in 10.0 mi ENE 3.5 mph - N/A   Overcast
12:50 AM 36.1 °F 32.3 °F 31.8 °F 84% 29.83 in 10.0 mi East 4.6 mph - N/A   Overcast
1:10 AM 36.5 °F 33.9 °F 32.0 °F 84% 29.81 in 10.0 mi ENE 3.5 mph - N/A   Overcast
1:30 AM 36.5 °F 32.7 °F 32.0 °F 84% 29.81 in 10.0 mi ENE 4.6 mph - N/A   Overcast
1:50 AM 36.5 °F 33.9 °F 32.0 °F 84% 29.81 in 10.0 mi ENE 3.5 mph - N/A   Overcast
2:10 AM 36.1 °F - 32.0 °F 85% 29.79 in 10.0 mi Calm Calm - N/A   Overcast
2:30 AM 36.0 °F - 32.2 °F 86% 29.78 in 10.0 mi Calm Calm - N/A   Overcast
2:50 AM 35.8 °F - 32.4 °F 87% 29.77 in 10.0 mi Calm Calm - N/A   Overcast
3:10 AM 35.6 °F - 32.2 °F 87% 29.77 in 7.0 mi Calm Calm - N/A   Mostly Cloudy
3:30 AM 34.7 °F - 32.0 °F 90% 29.76 in 7.0 mi Calm Calm - N/A   Scattered Clouds
3:50 AM 34.7 °F - 32.2 °F 91% 29.76 in 7.0 mi Calm Calm - N/A   Clear
4:10 AM 33.8 °F - 32.0 °F 93% 29.76 in 7.0 mi Calm Calm - N/A   Scattered Clouds
4:30 AM 35.6 °F - 33.4 °F 92% 29.76 in 7.0 mi Calm Calm - N/A   Overcast
4:50 AM 35.6 °F 31.7 °F 33.1 °F 91% 29.76 in 7.0 mi West 4.6 mph - N/A   Overcast
5:10 AM 35.2 °F 31.2 °F 32.9 °F 91% 29.75 in 7.0 mi West 4.6 mph - N/A   Overcast
5:30 AM 35.8 °F 30.9 °F 33.3 °F 91% 29.76 in 7.0 mi West 5.8 mph - N/A   Overcast
5:50 AM 35.8 °F 29.4 °F 33.3 °F 91% 29.76 in 7.0 mi West 8.1 mph - N/A   Overcast
6:10 AM 35.8 °F 30.1 °F 33.3 °F 91% 29.76 in 7.0 mi West 6.9 mph - N/A   Overcast
6:30 AM 35.6 °F 29.2 °F 33.1 °F 91% 29.75 in 7.0 mi West 8.1 mph - N/A   Overcast
6:50 AM 35.2 °F 30.3 °F 33.4 °F 93% 29.75 in 5.0 mi West 5.8 mph - N/A   Overcast
7:10 AM 34.9 °F 28.3 °F 33.8 °F 96% 29.76 in 5.0 mi West 8.1 mph - N/A   Overcast
7:30 AM 34.9 °F 29.0 °F 33.8 °F 96% 29.77 in 4.0 mi West 6.9 mph - N/A   Overcast
7:50 AM 34.9 °F 29.0 °F 33.8 °F 96% 29.77 in 4.0 mi West 6.9 mph - N/A   Overcast
8:10 AM 34.7 °F 28.1 °F 33.8 °F 97% 29.76 in 4.0 mi West 8.1 mph - N/A   Overcast
8:30 AM 34.9 °F 27.7 °F 33.8 °F 96% 29.77 in 4.0 mi West 9.2 mph - N/A   Overcast
8:50 AM 35.4 °F 29.7 °F 34.0 °F 94% 29.78 in 4.0 mi West 6.9 mph - N/A   Overcast
9:10 AM 35.6 °F 29.2 °F 33.8 °F 93% 29.77 in 5.0 mi West 8.1 mph - N/A   Overcast
9:30 AM 36.0 °F 29.6 °F 33.8 °F 92% 29.77 in 7.0 mi West 8.1 mph - N/A   Overcast
9:50 AM 36.7 °F 29.9 °F 33.6 °F 89% 29.78 in 7.0 mi West 9.2 mph - N/A   Overcast
10:10 AM 37.2 °F 30.0 °F 33.3 °F 86% 29.78 in 10.0 mi West 10.4 mph - N/A   Overcast
10:30 AM 36.7 °F 28.9 °F 32.9 °F 86% 29.79 in 10.0 mi West 11.5 mph - N/A   Overcast
10:50 AM 36.9 °F 29.1 °F 32.5 °F 84% 29.79 in 10.0 mi West 11.5 mph - N/A   Overcast
11:10 AM 36.9 °F 28.7 °F 32.4 °F 84% 29.80 in 10.0 mi WNW 12.7 mph - N/A   Overcast
11:30 AM 36.3 °F 28.0 °F 32.0 °F 84% 29.79 in 10.0 mi WNW 12.7 mph - N/A   Overcast
11:50 AM 35.8 °F 26.9 °F 32.0 °F 86% 29.79 in 10.0 mi NW 13.8 mph - N/A   Overcast
12:10 PM 35.8 °F 28.3 °F 32.0 °F 86% 29.79 in 10.0 mi NW 10.4 mph - N/A   Overcast
12:30 PM 36.0 °F 28.0 °F 31.3 °F 83% 29.78 in 10.0 mi NW 11.5 mph - N/A   Overcast
12:50 PM 35.8 °F 27.8 °F 31.3 °F 84% 29.78 in 10.0 mi WNW 11.5 mph - N/A   Overcast
1:10 PM 35.6 °F 27.1 °F 31.1 °F 84% 29.78 in 10.0 mi NW 12.7 mph - N/A   Overcast
1:30 PM 35.2 °F 26.6 °F 31.1 °F 85% 29.79 in 10.0 mi NW 12.7 mph - N/A   Overcast
1:50 PM 35.2 °F 26.6 °F 30.7 °F 84% 29.80 in 10.0 mi NW 12.7 mph - N/A   Overcast
2:10 PM 35.2 °F 27.1 °F 30.2 °F 82% 29.81 in 10.0 mi NW 11.5 mph - N/A   Overcast
2:30 PM 34.7 °F 25.9 °F 30.6 °F 85% 29.81 in 10.0 mi NW 12.7 mph - N/A   Overcast
2:50 PM 34.7 °F 25.9 °F 30.7 °F 85% 29.81 in 10.0 mi NW 12.7 mph - N/A   Overcast
3:30 PM 34.2 °F 26.8 °F 30.7 °F 87% 29.82 in 10.0 mi NNW 9.2 mph 18.4 mph N/A   Overcast
3:50 PM 33.8 °F 24.8 °F 30.2 °F 87% 29.83 in 10.0 mi NW 12.7 mph - N/A   Overcast
4:10 PM 33.3 °F 27.9 °F 30.0 °F 88% 29.83 in 10.0 mi NNW 5.8 mph 16.1 mph N/A   Overcast
4:30 PM 33.3 °F 24.1 °F 30.0 °F 88% 29.83 in 10.0 mi NW 12.7 mph 17.3 mph N/A   Overcast
4:50 PM 33.3 °F 27.1 °F 29.3 °F 85% 29.85 in 10.0 mi NW 6.9 mph - N/A   Overcast
5:10 PM 33.1 °F 26.1 °F 29.7 °F 87% 29.85 in 10.0 mi NNW 8.1 mph - N/A   Overcast
5:30 PM 32.9 °F 25.9 °F 29.3 °F 87% 29.87 in 10.0 mi NW 8.1 mph - N/A   Overcast
5:50 PM 32.9 °F 26.7 °F 29.8 °F 88% 29.87 in 10.0 mi NNW 6.9 mph - N/A   Overcast
6:10 PM 32.5 °F 26.2 °F 29.3 °F 88% 29.87 in 10.0 mi NNW 6.9 mph - N/A   Overcast
6:30 PM 32.2 °F 26.7 °F 29.3 °F 89% 29.88 in 10.0 mi NNW 5.8 mph - N/A   Overcast
6:50 PM 32.2 °F 27.7 °F 29.3 °F 89% 29.86 in 10.0 mi NNW 4.6 mph - N/A   Overcast
7:10 PM 32.0 °F 26.4 °F 29.3 °F 90% 29.87 in 10.0 mi North 5.8 mph - N/A   Overcast
7:30 PM 32.0 °F 26.4 °F 29.3 °F 90% 29.88 in 10.0 mi NNW 5.8 mph - N/A   Overcast
7:50 PM 32.0 °F 25.6 °F 29.3 °F 90% 29.86 in 10.0 mi NNW 6.9 mph - N/A   Overcast
8:10 PM 32.0 °F 25.6 °F 29.7 °F 91% 29.86 in 10.0 mi NNW 6.9 mph - N/A   Overcast
8:30 PM 31.8 °F 25.4 °F 29.5 °F 91% 29.86 in 10.0 mi NNW 6.9 mph - N/A   Overcast
8:50 PM 31.8 °F 25.4 °F 29.5 °F 91% 29.86 in 10.0 mi NNW 6.9 mph - N/A   Overcast
9:10 PM 31.5 °F 24.9 °F 29.5 °F 92% 29.84 in 10.0 mi North 6.9 mph - N/A   Overcast
9:30 PM 31.5 °F 26.8 °F 29.3 °F 92% 29.86 in 10.0 mi North 4.6 mph - N/A   Overcast
9:50 PM 31.6 °F 26.0 °F 29.3 °F 91% 29.84 in 10.0 mi NNE 5.8 mph - N/A   Overcast
10:10 PM 31.6 °F 25.1 °F 29.3 °F 91% 29.83 in 10.0 mi North 6.9 mph - N/A   Overcast
10:30 PM 31.8 °F 25.4 °F 29.3 °F 90% 29.84 in 10.0 mi NNE 6.9 mph - N/A   Overcast
10:50 PM 31.8 °F 26.2 °F 29.5 °F 91% 29.85 in 7.0 mi NNE 5.8 mph - N/A   Overcast
11:30 PM 32.0 °F 28.7 °F 30.2 °F 93% 29.84 in 7.0 mi NNE 3.5 mph - N/A   Overcast
11:50 PM 32.0 °F 26.4 °F 30.2 °F 93% 29.83 in 7.0 mi NE 5.8 mph - N/A   Overcast